User: anonymous   Login
Location: Utrecht
(52.0907°N, 5.1214°E)
Time: 15:28:46
(UTC+02:00)
Language:

AO-91 - Orbit

View from above orbital plane
View from above orbital plane
View from above satellite
View from above satellite

Ground track
Ground track

The orbit data is extracted from the following two-line orbital elements,

1 43017U 17073E   22182.69146773  .00001527  00000-0  11831-3 0  9993
2 43017  97.6738  76.3030 0249339 140.9491 221.0022 14.81459832249227
Epoch (UTC): 01 July 2022 16:35:42
Eccentricity: 0.0249339
inclination: 97.6738°
perigee height: 450 km
apogee height: 799 km
right ascension of ascending node: 76.3030°
argument of perigee: 140.9491°
revolutions per day: 14.81459832
mean anomaly at epoch: 221.0022°
orbit number at epoch: 24922

The dashed part of the orbit path shows where the satellite is in the earth's shadow,  

DLR